Wind_Speed
15 14 14 13 13 13 12 12 13 12 12 12 11 11 10 9 9 9 8 8 8 7 7 6 5 5 4 3 3 2 1 1 1 1 1 1 1 2 2 2 2 3 3
17 16 15 15 14 14 13 13 13 14 14 13 12 12 11 11 10 10 9 9 9 8 8 7 6 6 5 4 4 3 3 3 2 2 2 2 2 2 2 3 3 3 3
19 18 17 17 16 15 14 14 15 14 14 14 13 13 13 12 12 11 11 10 10 9 9 8 8 7 7 6 5 5 4 4 4 3 3 3 3 3 3 3 4 4 4
20 20 19 18 17 16 16 16 16 15 15 14 14 14 14 13 13 13 12 11 11 10 10 9 9 8 8 7 7 6 6 6 5 5 5 5 5 5 5 5 5 5 5
22 21 21 20 19 18 17 17 17 17 16 15 15 15 15 14 14 14 14 13 12 12 11 11 10 10 9 9 8 8 8 7 7 6 6 6 6 6 6 6 6 6 6
23 23 22 21 21 20 19 19 18 18 17 17 16 16 15 15 15 15 15 14 13 13 12 12 12 11 11 10 9 9 9 9 9 9 8 8 8 8 8 8 7 7 7
25 25 24 23 23 22 22 21 20 19 19 18 17 17 16 15 15 16 16 15 15 15 14 14 13 13 12 11 11 11 10 10 10 10 11 10 10 10 10 9 9 9 9
27 26 26 25 25 24 23 23 22 21 21 20 19 18 18 17 17 16 17 17 17 16 16 15 15 14 14 13 13 13 12 12 12 12 12 12 12 11 11 11 11 11 10
28 28 27 27 27 26 26 25 24 23 23 22 22 21 20 19 18 18 17 18 18 18 17 17 16 16 15 15 15 14 14 14 14 13 13 13 13 13 13 13 12 12 12
31 30 29 29 29 28 28 27 26 25 25 24 23 22 22 21 20 20 19 19 18 18 18 18 17 17 16 16 16 15 15 15 15 15 15 15 14 14 14 14 14 14 14
33 32 31 31 31 30 29 29 28 27 27 26 25 24 24 23 22 22 21 20 20 19 19 19 19 18 18 18 17 17 17 17 17 16 16 16 16 16 16 16 16 15 16
34 33 33 33 32 32 31 30 30 29 29 28 27 26 26 25 24 24 23 22 22 21 21 21 21 21 20 20 19 19 19 18 19 18 18 19 18 18 18 18 18 17 17
36 35 35 34 33 33 32 32 31 31 31 30 29 28 27 26 26 25 25 24 23 23 22 22 21 21 21 21 21 21 21 21 21 21 20 20 20 20 20 20 20 20 19
38 37 37 36 35 34 34 33 33 32 32 32 31 30 29 28 27 27 26 25 25 24 23 23 22 22 22 22 22 22 22 22 22 22 22 22 22 22 22 22 22 22 22
40 39 38 37 37 36 36 35 34 34 33 33 32 32 30 29 29 28 27 26 26 26 25 24 24 24 23 23 23 23 23 23 24 24 24 24 24 23 24 24 24 23 23
41 41 40 39 38 38 37 36 35 35 34 33 33 33 32 31 31 30 29 28 28 27 27 26 26 25 25 25 25 25 25 25 25 25 25 25 25 25 25 25 25 24 24
43 42 41 41 40 40 39 38 37 36 36 36 34 34 33 32 32 32 31 30 30 29 28 28 28 28 27 26 26 26 26 26 26 26 26 26 26 26 26 26 26 25 26
44 44 43 42 42 41 41 40 39 38 38 37 36 35 35 34 33 33 32 32 31 30 30 30 30 29 29 28 28 28 27 27 27 27 27 27 27 27 27 27 28 28 27
45 45 44 44 44 43 42 41 41 40 40 39 38 37 36 35 35 34 34 33 32 32 32 31 31 31 31 30 30 29 29 29 29 28 28 28 28 29 29 29 28 28 29
46 46 46 45 45 45 44 44 43 42 42 41 40 39 39 37 37 35 35 34 33 33 33 32 32 32 32 32 32 31 30 29 29 29 29 29 29 29 29 29 29 29 30
47 47 46 46 46 46 46 45 45 44 43 43 42 41 41 40 39 38 37 36 35 34 34 33 33 33 33 33 33 32 32 31 31 31 31 31 31 31 30 30 30 30 31
49 48 48 47 47 47 47 46 46 46 45 44 44 43 42 42 41 40 39 38 37 36 36 36 35 34 34 34 34 33 33 32 32 32 32 32 32 32 32 32 33 33 33
49 49 49 48 48 48 47 47 47 47 46 46 45 45 44 43 43 42 41 41 40 38 37 37 37 36 35 35 35 35 34 34 33 34 33 33 34 34 34 34 34 34 34
49 49 49 49 49 49 49 48 48 47 46 46 46 46 45 45 44 44 43 42 42 40 39 39 39 38 37 36 36 36 36 36 35 35 35 35 35 36 36 36 36 36 35
49 49 50 49 49 49 49 49 49 48 48 47 47 47 47 46 45 45 44 43 43 42 41 40 40 40 39 38 37 37 37 37 37 37 36 36 36 37 36 37 37 37 36
48 49 49 49 49 49 49 49 49 49 49 48 48 48 48 47 46 45 45 44 44 44 43 41 42 41 41 40 40 39 39 39 39 39 38 38 38 37 37 37 37 37 37
Wind_Direction
228 227 225 226 225 225 225 224 222 221 220 220 219 220 220 218 213 211 210 210 208 206 208 210 211 213 217 220 226 234 242 257 282 278 293 301 300 304 315 325 329 335 342
231 228 227 227 227 226 225 224 223 223 222 222 223 223 223 222 220 218 215 215 214 213 214 216 219 222 223 227 233 240 242 247 257 262 274 279 286 290 295 299 308 312 320
232 231 230 229 229 227 226 225 224 224 224 225 224 224 225 225 224 223 221 220 220 220 222 224 226 228 229 231 235 239 241 245 252 262 269 270 273 279 283 288 294 297 300
234 233 233 231 230 229 227 226 225 225 225 225 226 226 226 226 226 225 225 224 225 226 228 230 230 230 231 235 239 241 243 246 252 260 265 267 270 274 277 282 288 293 296
235 234 234 233 232 230 229 228 227 226 226 226 226 227 227 227 227 227 227 226 227 230 232 233 233 234 236 240 242 244 246 249 252 257 262 265 267 271 274 277 281 285 291
235 235 235 234 233 231 230 230 229 228 227 226 227 227 228 228 229 230 229 228 228 230 234 236 236 238 240 242 244 246 249 252 254 256 259 263 266 267 269 272 276 278 284
235 235 234 234 233 232 231 232 231 230 229 227 228 228 230 230 231 232 232 231 232 233 236 238 239 241 242 244 246 249 253 255 257 256 258 262 264 266 267 269 272 273 278
235 235 235 234 233 232 233 233 234 234 232 230 230 232 232 232 233 235 235 235 235 237 239 241 241 242 244 247 249 251 254 256 258 259 260 263 264 264 265 266 267 269 273
235 235 234 234 234 234 234 234 234 234 234 233 234 234 235 236 237 238 238 238 238 239 241 242 243 244 246 247 249 251 253 256 259 260 263 266 264 264 265 266 266 268 271
234 235 235 235 235 235 236 235 234 235 235 235 235 236 237 238 238 239 239 240 240 240 242 243 244 245 246 248 250 252 254 256 259 261 263 265 266 266 266 268 269 270 272
235 235 236 236 236 236 237 237 236 236 236 236 236 237 238 238 239 240 240 240 241 242 244 246 247 247 248 249 250 252 255 257 259 262 264 265 266 267 267 268 270 271 273
236 236 237 237 237 237 237 237 236 236 236 236 236 238 239 240 242 242 242 242 243 244 246 248 249 250 251 251 252 254 256 258 260 262 264 266 267 267 268 269 270 272 273
236 236 237 237 237 237 236 236 236 236 237 236 237 238 239 240 241 242 243 244 245 246 248 249 250 251 252 254 255 256 257 259 261 263 264 265 266 267 267 269 269 271 273
235 236 236 236 236 236 236 237 236 236 236 236 236 237 238 240 242 243 244 246 246 248 249 251 252 253 254 255 256 258 259 260 262 263 264 264 265 267 268 268 270 271 272
235 235 235 235 235 236 236 237 237 236 235 236 236 236 238 240 242 244 245 246 247 249 250 251 253 254 255 255 257 259 260 262 263 263 264 264 265 267 268 269 270 271 272
235 235 235 235 235 236 236 237 237 236 236 236 236 236 238 240 243 245 246 247 248 249 251 251 253 254 255 256 258 260 261 263 263 263 264 265 265 266 267 268 269 270 271
235 236 235 234 235 236 236 237 237 237 236 236 236 238 239 241 243 244 247 248 249 249 251 252 253 254 255 257 259 260 262 263 264 264 264 265 265 266 266 267 268 270 272
235 236 236 235 235 236 237 238 238 238 237 237 238 240 241 242 243 244 246 248 249 250 251 252 253 255 255 258 260 260 261 262 264 264 265 265 265 265 266 267 268 270 271
235 236 236 236 236 236 237 238 239 239 237 237 239 241 242 243 243 244 246 248 249 250 251 252 253 254 256 258 259 261 261 262 264 264 265 265 266 266 266 267 268 270 271
235 236 236 236 236 237 238 238 238 239 238 239 240 241 243 244 244 245 246 246 248 250 252 252 254 255 256 258 259 260 260 262 263 264 265 267 267 267 267 267 268 270 271
235 235 236 236 236 237 237 238 239 239 239 239 240 241 243 244 245 245 246 247 248 250 252 254 255 256 257 258 259 259 260 262 263 264 266 267 268 267 267 268 269 270 272
235 236 236 237 237 237 237 238 239 239 239 239 240 241 243 244 246 246 247 248 249 251 253 254 254 256 257 258 259 259 259 261 263 264 266 267 267 266 267 268 270 272 273
235 236 236 237 238 238 238 238 239 240 239 240 241 242 243 244 246 246 247 249 250 251 253 255 254 256 257 258 258 259 260 260 262 264 265 267 267 267 268 269 271 272 272
235 236 236 237 238 238 238 239 240 241 241 241 242 243 243 244 245 246 247 248 250 251 254 255 254 255 256 257 258 259 260 262 263 264 264 265 266 267 269 269 270 271 272
235 236 236 236 237 238 238 238 239 240 241 242 242 243 243 244 245 246 247 248 250 251 253 253 254 254 256 257 258 259 260 262 263 264 265 265 266 267 269 270 271 271 272
235 236 236 236 237 238 238 238 239 240 241 242 242 243 244 244 245 246 247 248 250 251 252 252 253 254 255 257 258 259 260 262 264 265 267 266 266 266 267 269 270 271 272
Height
5852 5853 5854 5855 5856 5857 5858 5859 5860 5861 5862 5863 5864 5865 5866 5866 5867 5868 5868 5869 5869 5870 5871 5871 5872 5872 5872 5873 5873 5873 5873 5873 5873 5873 5873 5872 5872 5872 5872 5871 5871 5871 5870
5849 5850 5851 5852 5854 5855 5856 5857 5858 5859 5860 5861 5862 5863 5864 5865 5866 5867 5867 5868 5868 5869 5870 5870 5871 5871 5871 5872 5872 5872 5872 5872 5872 5872 5872 5872 5871 5871 5871 5871 5871 5870 5870
5846 5847 5848 5850 5851 5852 5853 5854 5856 5857 5858 5859 5860 5861 5862 5863 5864 5865 5866 5866 5867 5868 5868 5869 5870 5870 5870 5871 5871 5871 5871 5871 5871 5871 5871 5871 5871 5871 5870 5870 5870 5870 5869
5843 5844 5845 5847 5848 5849 5851 5852 5853 5854 5856 5857 5858 5859 5860 5861 5862 5863 5864 5864 5865 5866 5867 5867 5868 5868 5869 5870 5870 5870 5870 5870 5870 5870 5870 5870 5870 5870 5870 5869 5869 5869 5868
5839 5840 5842 5843 5845 5846 5848 5849 5851 5852 5853 5854 5855 5857 5858 5859 5860 5861 5862 5862 5863 5864 5865 5866 5866 5867 5867 5868 5868 5869 5869 5869 5869 5869 5869 5869 5869 5869 5869 5868 5868 5868 5867
5834 5836 5838 5840 5841 5843 5845 5846 5848 5849 5850 5852 5853 5854 5855 5856 5857 5858 5859 5860 5861 5862 5863 5864 5864 5865 5866 5866 5866 5867 5867 5867 5867 5867 5867 5867 5867 5867 5867 5867 5867 5867 5866
5830 5832 5834 5835 5837 5839 5841 5843 5844 5846 5847 5849 5850 5851 5852 5853 5855 5856 5857 5858 5859 5860 5861 5861 5862 5863 5863 5864 5864 5865 5865 5865 5865 5865 5865 5866 5866 5865 5865 5865 5865 5865 5865
5825 5827 5829 5831 5833 5835 5837 5839 5841 5842 5844 5845 5847 5848 5850 5851 5852 5853 5854 5855 5856 5857 5858 5859 5860 5860 5861 5862 5862 5863 5863 5863 5863 5863 5863 5863 5863 5863 5863 5863 5863 5863 5863
5820 5822 5824 5826 5828 5830 5832 5834 5837 5838 5840 5842 5843 5845 5846 5848 5849 5850 5851 5852 5853 5854 5855 5856 5857 5858 5858 5859 5860 5860 5860 5861 5861 5861 5861 5861 5861 5861 5861 5861 5861 5860 5860
5814 5816 5818 5821 5823 5825 5827 5830 5832 5834 5836 5838 5839 5841 5843 5844 5845 5847 5848 5849 5850 5851 5852 5853 5854 5854 5855 5856 5857 5857 5858 5858 5858 5858 5858 5858 5858 5858 5858 5858 5858 5858 5858
5808 5810 5813 5815 5817 5819 5822 5824 5826 5829 5831 5833 5835 5837 5838 5840 5841 5843 5844 5845 5847 5848 5849 5849 5850 5851 5852 5853 5853 5854 5854 5855 5855 5855 5855 5855 5855 5855 5855 5855 5855 5855 5855
5801 5804 5806 5809 5811 5813 5816 5818 5821 5823 5825 5828 5830 5832 5834 5835 5837 5838 5840 5841 5843 5844 5845 5846 5847 5847 5848 5849 5850 5850 5851 5851 5851 5852 5852 5852 5852 5852 5852 5852 5852 5851 5851
5794 5797 5799 5802 5805 5807 5810 5812 5814 5817 5819 5822 5824 5826 5828 5830 5832 5834 5835 5837 5838 5839 5841 5841 5842 5843 5844 5845 5846 5846 5847 5847 5848 5848 5848 5848 5848 5848 5848 5848 5848 5848 5847
5786 5789 5792 5795 5798 5800 5803 5805 5808 5811 5813 5816 5818 5821 5823 5825 5827 5829 5830 5832 5833 5835 5836 5837 5838 5839 5840 5841 5841 5842 5842 5843 5843 5843 5844 5844 5844 5844 5844 5844 5843 5843 5843
5778 5781 5784 5787 5791 5793 5796 5799 5801 5804 5807 5809 5812 5815 5817 5820 5822 5823 5825 5827 5828 5830 5831 5832 5833 5834 5835 5836 5836 5837 5838 5838 5838 5839 5839 5839 5839 5839 5839 5839 5839 5838 5838
5769 5773 5776 5780 5783 5786 5789 5792 5794 5797 5800 5803 5806 5808 5811 5813 5816 5818 5819 5821 5823 5824 5826 5827 5828 5829 5830 5831 5831 5832 5832 5833 5833 5833 5833 5834 5834 5834 5834 5833 5833 5833 5833
5760 5764 5768 5771 5775 5778 5781 5784 5787 5790 5793 5796 5799 5802 5804 5807 5809 5811 5813 5815 5817 5818 5820 5821 5822 5823 5824 5825 5826 5826 5827 5827 5828 5828 5828 5828 5828 5828 5828 5828 5828 5828 5828
5751 5755 5759 5763 5766 5770 5773 5776 5779 5783 5786 5789 5792 5795 5798 5800 5803 5805 5807 5809 5810 5812 5814 5815 5816 5817 5818 5819 5820 5821 5821 5821 5822 5822 5822 5822 5822 5822 5822 5822 5822 5822 5822
5741 5745 5749 5753 5757 5761 5765 5768 5771 5775 5778 5781 5785 5788 5790 5793 5795 5798 5800 5802 5804 5805 5807 5808 5810 5811 5812 5813 5814 5815 5815 5815 5816 5816 5816 5816 5816 5816 5816 5816 5816 5816 5815
5731 5735 5740 5744 5748 5752 5755 5759 5763 5766 5770 5773 5777 5780 5782 5785 5788 5790 5793 5795 5797 5798 5800 5801 5803 5804 5805 5806 5807 5808 5809 5809 5809 5809 5810 5810 5810 5809 5809 5809 5809 5809 5808
5721 5725 5730 5734 5738 5742 5746 5750 5754 5758 5761 5765 5768 5771 5774 5777 5780 5782 5785 5787 5789 5791 5793 5794 5795 5797 5798 5799 5800 5801 5802 5802 5803 5803 5803 5803 5803 5803 5803 5802 5802 5802 5801
5710 5715 5719 5724 5728 5732 5737 5740 5744 5748 5752 5755 5759 5762 5765 5768 5771 5774 5777 5779 5781 5783 5785 5787 5788 5789 5790 5791 5792 5793 5794 5795 5795 5796 5796 5796 5796 5796 5795 5795 5794 5794 5794
5699 5704 5709 5713 5718 5722 5726 5730 5734 5738 5741 5745 5749 5753 5756 5759 5762 5765 5768 5770 5772 5775 5776 5778 5780 5781 5782 5783 5784 5785 5786 5787 5788 5788 5788 5788 5788 5788 5788 5787 5787 5786 5786
5688 5693 5698 5703 5707 5711 5715 5720 5724 5728 5732 5736 5739 5742 5746 5749 5752 5755 5758 5761 5763 5765 5767 5769 5771 5772 5774 5775 5776 5777 5778 5778 5779 5780 5781 5780 5780 5780 5779 5779 5778 5778 5777
5677 5682 5687 5691 5696 5700 5705 5709 5713 5717 5721 5725 5728 5732 5735 5739 5742 5745 5748 5751 5753 5756 5758 5760 5761 5763 5765 5766 5767 5768 5768 5769 5769 5770 5771 5772 5771 5771 5770 5770 5769 5769 5768
5666 5670 5675 5680 5685 5689 5694 5698 5702 5706 5710 5714 5717 5721 5725 5728 5731 5735 5738 5740 5743 5746 5748 5750 5752 5753 5755 5757 5758 5759 5759 5760 5761 5761 5761 5761 5762 5762 5761 5761 5760 5760 5759